This demonstration page uses our WeatherBlox Daily Observations layout. Learn more.

Left ArrowRight Arrow

Hourly Observations for April 14, 2020

Temp ( °F °C ) Dew Point ( °F °C ) Humidity (%) Winds ( mph kmh ) Pressure ( in mb ) Visibility ( mi km ) Precip ( " mm )
12:15 am 00:15 Clear 50 10 34 1 54 54 NW 16 26 30.07 1018 10 16.0934 0 0
12:35 am 00:35 Clear 48 9 34 1 58 58 NW 10 17 30.09 1019 10 16.0934 0 0
12:55 am 00:55 Clear 48 9 34 1 58 58 NW 17 28 30.09 1019 10 16.0934 0 0
1:15 am 01:15 Clear 46 8 32 0 57 57 NW 13 20 30.1 1019 10 16.0934 0 0
1:35 am 01:35 Clear 46 8 32 0 57 57 NNW 9 15 30.1 1019 10 16.0934 0 0
1:55 am 01:55 Clear 46 8 32 0 57 57 NNW 16 26 30.1 1019 10 16.0934 0 0
2:15 am 02:15 Clear 46 8 34 1 62 62 NW 12 19 30.11 1020 10 16.0934 0 0
2:35 am 02:35 Clear 46 8 34 1 62 62 NNW 9 15 30.11 1020 10 16.0934 0 0
2:55 am 02:55 Clear 46 8 32 0 57 57 NW 13 20 30.12 1020 10 16.0934 0 0
3:15 am 03:15 Clear 46 8 32 0 57 57 NW 12 19 30.11 1020 10 16.0934 0 0
3:35 am 03:35 Clear 46 8 32 0 57 57 NNW 9 15 30.11 1020 10 16.0934 0 0
3:55 am 03:55 Clear 46 8 32 0 57 57 NNW 14 22 30.11 1020 10 16.0934 0 0
4:15 am 04:15 Partly Cloudy 45 7 32 0 61 61 N 9 15 30.11 1020 10 16.0934 0 0
4:35 am 04:35 Partly Cloudy 45 7 32 0 61 61 N 8 13 30.12 1020 10 16.0934 0 0
4:55 am 04:55 Partly Cloudy 45 7 32 0 61 61 N 6 9 30.12 1020 10 16.0934 0 0
5:15 am 05:15 Mostly Cloudy 45 7 32 0 61 61 N 7 11 30.13 1020 10 16.0934 0 0
5:35 am 05:35 Cloudy 45 7 32 0 61 61 NNW 8 13 30.14 1021 10 16.0934 0 0
5:55 am 05:55 Cloudy 45 7 32 0 61 61 NNW 8 13 30.14 1021 10 16.0934 0 0
6:15 am 06:15 Cloudy 45 7 32 0 61 61 NNW 6 9 30.14 1021 10 16.0934 0 0
6:35 am 06:35 Cloudy 45 7 32 0 61 61 NNW 10 17 30.14 1021 10 16.0934 0 0
6:55 am 06:55 Cloudy 45 7 30 -1 57 57 NNW 6 9 30.15 1021 10 16.0934 0 0
7:15 am 07:15 Cloudy 45 7 32 0 61 61 NNW 6 9 30.16 1021 10 16.0934 0 0
7:35 am 07:35 Cloudy 45 7 32 0 61 61 NW 7 11 30.16 1021 10 16.0934 0 0
7:55 am 07:55 Cloudy 45 7 32 0 61 61 NW 7 11 30.17 1022 10 16.0934 0 0
8:15 am 08:15 Cloudy 46 8 32 0 57 57 NNW 8 13 30.17 1022 10 16.0934 0 0
8:35 am 08:35 Cloudy 46 8 30 -1 53 53 NNW 10 17 30.18 1022 10 16.0934 0 0
8:55 am 08:55 Cloudy 46 8 30 -1 53 53 NNW 9 15 30.17 1022 10 16.0934 0 0
9:15 am 09:15 Mostly Cloudy 46 8 30 -1 53 53 N 8 13 30.17 1022 10 16.0934 0 0
9:35 am 09:35 Mostly Cloudy 46 8 32 0 57 57 NNW 10 17 30.17 1022 10 16.0934 0 0
9:55 am 09:55 Cloudy 48 9 32 0 54 54 N 8 13 30.17 1022 10 16.0934 0 0
10:15 am 10:15 Cloudy 48 9 30 -1 50 50 NNW 13 20 30.18 1022 10 16.0934 0 0
10:35 am 10:35 Cloudy 48 9 32 0 54 54 NNW 8 13 30.18 1022 10 16.0934 0 0
10:55 am 10:55 Cloudy 48 9 32 0 54 54 NW 9 15 30.16 1021 10 16.0934 0 0
11:15 am 11:15 Mostly Cloudy 50 10 32 0 50 50 WNW 5 7 30.17 1022 10 16.0934 0 0
11:35 am 11:35 Partly Cloudy 50 10 32 0 50 50 WNW 7 11 30.17 1022 10 16.0934 0 0
11:55 am 11:55 Partly Cloudy 50 10 32 0 50 50 N 9 15 30.16 1021 10 16.0934 0 0
12:15 pm 12:15 Sunny 52 11 32 0 47 47 WNW 5 7 30.15 1021 10 16.0934 0 0
12:35 pm 12:35 Partly Cloudy 52 11 30 -1 44 44 NNE 6 9 30.14 1021 10 16.0934 0 0
12:55 pm 12:55 Mostly Cloudy 52 11 32 0 47 47 NNW 6 9 30.13 1020 10 16.0934 0 0
1:15 pm 13:15 Partly Cloudy 52 11 32 0 47 47 NNE 7 11 30.11 1020 10 16.0934 0 0
1:35 pm 13:35 Partly Cloudy 54 12 32 0 44 44 NNE 8 13 30.1 1019 10 16.0934 0 0
1:55 pm 13:55 Mostly Cloudy 54 12 32 0 44 44 WNW 5 7 30.1 1019 10 16.0934 0 0
2:15 pm 14:15 Cloudy 54 12 32 0 44 44 NNW 10 17 30.09 1019 10 16.0934 0 0
2:35 pm 14:35 Cloudy 52 11 32 0 47 47 NNW 9 15 30.09 1019 10 16.0934 0 0
2:55 pm 14:55 Cloudy 52 11 32 0 47 47 NW 6 9 30.09 1019 10 16.0934 0 0
3:15 pm 15:15 Mostly Cloudy 54 12 32 0 44 44 Calm 30.08 1019 10 16.0934 0 0
3:35 pm 15:35 Partly Cloudy 54 12 34 1 47 47 SE 3 6 30.06 1018 10 16.0934 0 0
3:55 pm 15:55 Partly Cloudy 54 12 32 0 44 44 E 5 7 30.03 1017 10 16.0934 0 0
4:15 pm 16:15 Mostly Cloudy 55 13 32 0 41 41 Calm 30.03 1017 10 16.0934 0 0
4:35 pm 16:35 Cloudy 55 13 32 0 41 41 SSE 6 9 30 1016 10 16.0934 0 0
4:55 pm 16:55 Cloudy 55 13 32 0 41 41 SW 3 6 30.03 1017 10 16.0934 0 0
5:15 pm 17:15 Cloudy 54 12 32 0 44 44 Calm 30.04 1017 10 16.0934 0 0
5:35 pm 17:35 Cloudy 54 12 32 0 44 44 NNE 5 7 30.02 1017 10 16.0934 0 0
5:55 pm 17:55 Cloudy 54 12 32 0 44 44 ENE 8 13 30.02 1017 10 16.0934 0 0
6:15 pm 18:15 Cloudy 54 12 32 0 44 44 Calm 30.02 1017 10 16.0934 0 0
6:35 pm 18:35 Cloudy 54 12 32 0 44 44 N 6 9 30.02 1017 10 16.0934 0 0
6:55 pm 18:55 Cloudy 54 12 32 0 44 44 N 5 7 30.02 1017 10 16.0934 0 0
7:15 pm 19:15 Cloudy 54 12 34 1 47 47 N 7 11 30.03 1017 10 16.0934 0 0
7:35 pm 19:35 Cloudy 54 12 34 1 47 47 N 7 11 30.02 1017 10 16.0934 0 0
7:55 pm 19:55 Cloudy 52 11 36 2 54 54 N 8 13 30.03 1017 10 16.0934 0 0
8:15 pm 20:15 Cloudy 46 8 39 4 76 76 NNW 21 33 30.06 1018 10 16.0934 0 0
8:35 pm 20:35 Cloudy 45 7 41 5 87 87 NNW 18 30 30.07 1018 10 16.0934 0 0
8:55 pm 20:55 Cloudy 43 6 41 5 93 93 NNW 16 26 30.09 1019 10 16.0934 0 0
9:15 pm 21:15 Cloudy 43 6 41 5 93 93 NNW 18 30 30.1 1019 10 16.0934 0.01 0.254
9:35 pm 21:35 Cloudy 41 5 41 5 100 100 NNW 16 26 30.11 1020 10 16.0934 0.04 1.016
9:55 pm 21:55 Cloudy 41 5 39 4 93 93 NNW 13 20 30.12 1020 10 16.0934 0.06 1.524
10:15 pm 22:15 Cloudy 41 5 37 3 87 87 NNW 13 20 30.12 1020 10 16.0934 0.02 0.508
10:35 pm 22:35 Cloudy 39 4 37 3 93 93 NW 13 20 30.14 1021 10 16.0934 0.03 0.762
10:55 pm 22:55 Cloudy 37 3 37 3 100 100 N 7 11 30.14 1021 7 11.26538 0.05 1.27
11:15 pm 23:15 Cloudy 36 2 36 2 100 100 NNW 12 19 30.14 1021 7 11.26538 0.02 0.508
11:35 pm 23:35 Cloudy 36 2 36 2 100 100 NNW 7 11 30.14 1021 5 8.0467 0.05 1.27
11:55 pm 23:55 Cloudy 36 2 36 2 100 100 NNW 7 11 30.14 1021 7 11.26538 0.07 1.778

Powered by AerisWeather